Location: Fontanone
(42.5213°N, 9.4003°E)
Time: 04:29:55
(UTC+00:00)

Daily predictions for brighter satellites

Satellite Brightness Start Highest point End
(mag) Time Altitude Azimuth Time Altitude Azimuth Time Altitude Azimuth
USA 215 4.0 03:14:15 10° E 03:19:41 45° NE 03:19:41 45° NE
Cosmos 1697 Rocket 4.4 03:31:36 21° SE 03:34:04 29° ESE 03:38:50 10° NE
Cosmos 2344 4.2 03:36:37 28° S 03:40:21 50° ESE 03:47:49 10° NE
Cosmos 2184 Rocket 4.1 03:59:10 25° N 04:02:58 72° E 04:09:12 10° SSE
Cosmos 2297 Rocket 2.4 04:09:45 58° S 04:09:45 58° S 04:14:15 10° SSE
BREEZE-M DEB (TANK) 4.2 04:07:51 44° WNW 04:11:58 75° SW 04:16:42 10° SE
Okean O Rocket 4.0 04:13:58 10° NE 04:17:31 23° E 04:21:02 10° SSE
Cosmos 2227 Rocket 2.1 04:20:51 69° SSW 04:20:51 69° SSW 04:26:01 10° SSE
Cosmos 1626 Rocket 4.2 04:27:39 44° S 04:27:39 44° S 04:30:40 10° S
Cosmos 44 Rocket 4.0 04:26:50 37° N 04:28:07 46° NE 04:32:41 10° SE
Cosmos 2263 Rocket 4.4 04:24:12 10° N 04:28:16 20° NE 04:32:19 10° E
Cosmos 2074 Rocket 3.9 04:31:13 27° NNW 04:34:41 64° W 04:40:48 10° S
Cosmos 2278 3.9 04:29:31 10° SSW 04:35:10 70° ESE 04:40:52 10° NNE
Cosmos 1656 4.0 04:36:45 45° NNW 04:36:45 45° NNW 04:41:09 10° NNE
STARLINK-48 3.8 04:38:14 61° NE 04:38:14 61° NE 04:41:30 10° NE
COSMOS 2455 3.8 04:32:26 10° S 04:38:07 46° ESE 04:43:51 10° NE
STARLINK-80 4.3 04:39:35 40° NNE 04:39:35 40° NNE 04:42:14 10° NE
Cosmos 2369 3.6 04:39:29 24° SSW 04:43:02 76° WNW 04:48:49 10° NNE
NOSS 2-2 (C) 3.1 04:44:50 78° SSE 04:44:57 80° ESE 04:48:52 10° NE
SL-4 R/B 3.1 04:45:26 29° NNE 04:45:26 29° NNE 04:48:30 10° E
METEOR-M 4.1 04:46:09 10° NNE 04:51:33 89° ESE 04:56:53 10° SSW
PAYLOAD B 4.4 04:48:35 10° NNE 04:54:13 75° ESE 04:59:49 10° S
NOSS 2-2 (E) 3.1 04:56:05 62° NW 04:56:05 62° NW 05:00:01 10° NNE
Cosmos 1626 4.1 05:00:08 16° SSW 05:00:08 16° SSW 05:01:03 10° SSW
ATLAS 3B R/B 4.2 04:52:25 10° NNW 04:58:11 30° NE 05:04:03 10° E
COSMO-SKYMED 1 2.6 04:54:17 10° S 04:58:32 55° W 04:59:36 43° NW
CZ-4B R/B 3.7 04:55:41 10° NNE 05:01:15 64° ESE 05:06:39 10° S
Cosmos 1606 Rocket 4.2 04:58:54 10° S 05:03:16 59° E 05:07:38 10° NNE
USA 215 3.3 04:56:51 10° SE 05:03:17 62° SW 05:07:02 27° WNW
Lacrosse 5 rocket 3.4 05:05:38 16° NNW 05:05:42 16° NNW 05:08:33 10° NNE
NOSS 3-2 (A) 4.2 04:59:33 15° NNW 05:06:04 76° NE 05:14:32 10° SE
Cosmos 2181 Rocket 4.5 05:00:10 10° S 05:06:13 62° E 05:12:24 10° NNE
Meteor 1-21 Rocket 4.3 05:02:02 10° N 05:07:55 87° W 05:13:51 10° S
STARLINK-33 4.5 05:05:15 13° SSW 05:08:18 42° SE 05:11:48 10° ENE
Cosmos 1980 Rocket 2.1 05:03:06 10° SSW 05:08:48 87° WNW 05:14:31 10° NNE
STARLINK-26 3.0 05:08:45 47° WSW 05:09:39 80° NW 05:13:11 10° NE
Cosmos 2341 Rocket 4.0 05:05:49 10° N 05:12:08 88° E 05:18:21 10° S
STARLINK-66 4.2 05:10:01 12° SSW 05:13:09 47° SE 05:16:41 10° ENE
ALOS 2.4 05:08:41 10° N 05:13:13 51° WNW 05:17:43 10° SSW
FENGYUN 3A 3.6 05:09:28 10° N 05:14:45 58° WNW 05:20:03 10° SSW
MOS 1-B 4.3 05:09:46 10° N 05:15:28 60° WNW 05:21:08 10° SSW
DMSP B5D1-3 4.4 05:11:48 10° SSE 05:16:55 87° WSW 05:22:04 10° NNW
STARLINK-72 4.4 05:13:22 10° SSW 05:17:14 49° SE 05:21:08 10° ENE
Cosmos 1697 Rocket 3.0 05:13:31 15° SW 05:17:50 42° WNW 05:23:09 10° NNE
STARLINK-55 3.9 05:15:21 12° SW 05:18:36 55° SE 05:22:10 10° ENE
Cosmos 1953 2.4 05:14:40 10° SSW 05:18:37 54° W 05:22:37 10° N
STARLINK-50 4.4 05:15:00 10° SSW 05:18:53 50° SE 05:22:48 10° ENE
Cosmos 1703 4.4 05:15:05 10° N 05:18:55 45° ENE 05:22:42 10° SSE
SL-8 Rocket 4.2 05:13:42 10° N 05:19:57 74° E 05:26:05 10° SSE
Meteor 2-10 4.3 05:14:45 10° S 05:20:21 78° E 05:25:47 10° NNE
STARLINK-61 3.5 05:17:37 19° SW 05:20:24 86° SE 05:24:22 10° NE
STARLINK-59 4.2 05:16:43 10° SW 05:20:38 54° SE 05:24:34 10° ENE
STARLINK-56 4.3 05:18:16 10° SW 05:22:11 54° SE 05:26:07 10° ENE
Starlink (trailer) 4.2 05:19:55 10° SW 05:23:51 55° SE 05:27:48 10° ENE
Cosmos 1726 2.0 05:21:11 10° S 05:24:52 85° W 05:28:33 10° N
CENTAUR R/B 3.7 05:17:13 10° NNW 05:25:08 59° NE 05:33:43 10° SE
STARLINK-38 4.1 05:21:33 10° SW 05:25:29 58° SE 05:29:27 10° ENE
Nadezhda 1 Rocket 4.4 05:20:21 10° SW 05:25:54 36° WNW 05:31:28 10° N
STARLINK-65 4.1 05:23:10 10° SW 05:27:07 59° SE 05:31:06 10° ENE
STARLINK-53 3.9 05:24:53 10° SW 05:28:51 64° SE 05:32:51 10° ENE
ATLAS 2AS CENTAUR R/B 3.3 05:22:18 10° SSW 05:30:13 77° ESE 05:38:14 10° NE
STARLINK-28 3.3 05:27:57 11° SW 05:31:16 77° SE 05:34:50 10° NE
ADEOS Rocket 2.9 05:26:15 10° SSE 05:31:43 79° ENE 05:37:18 10° N
Abrixas rocket 3.3 05:32:51 21° NNW 05:34:07 30° N 05:36:51 10° ENE
STARLINK-75 3.5 05:32:25 10° SW 05:36:18 82° SE 05:40:12 10° NE
CZ-3 R/B 3.4 05:24:06 10° WSW 05:37:45 31° SSW 05:42:52 10° SE
Cosmos 2228 3.1 05:36:35 10° SSW 05:40:55 59° W 05:45:17 10° N
USA 238 DEB 3.9 05:34:14 11° NW 05:41:13 66° WSW 05:48:33 10° SSE
USA 238 3.9 05:34:20 11° NW 05:41:19 67° WSW 05:48:40 10° SSE
STARLINK-58 3.6 05:38:01 10° SW 05:42:02 81° SE 05:46:04 10° NE
STARLINK-62 3.5 05:39:42 10° SW 05:43:43 85° SSE 05:47:46 10° NE
BREEZE-M DEB (TANK) 4.1 05:33:37 10° W 05:45:49 51° NNW 05:50:10 10° NE
STARLINK-41 3.5 05:42:27 10° SW 05:46:20 85° SE 05:50:13 10° NE
Cosmos 2218 Rocket 4.0 05:41:29 10° N 05:47:54 82° W 05:54:15 10° S
Okean-O 4.3 05:44:29 10° NNE 05:48:40 39° E 05:52:48 10° SSE
Cosmos 2297 Rocket 4.0 05:51:37 11° W 05:51:40 11° W 05:52:44 10° WSW
Cosmos 1953 Rocket 3.7 05:47:25 10° NNW 05:51:47 55° W 05:56:04 10° S
Cosmos 923 Rocket 4.0 05:46:45 10° SSW 05:51:57 66° WNW 05:57:15 10° NNE
Okean O Rocket 2.2 05:49:53 10° N 05:53:55 34° WNW 05:57:55 10° SW
STARLINK 3.4 05:50:57 10° SW 05:54:50 89° NNW 05:58:43 10° NE
Cosmos 2344 4.1 05:48:07 10° WSW 05:55:01 38° NW 06:02:43 10° NNE
Cosmos 2322 Rocket 2.9 05:50:43 10° S 05:56:15 59° ESE 06:01:50 10° NNE
Cosmos 1758 Rocket 4.4 05:53:18 10° NNW 05:57:02 28° W 06:00:46 10° SSW
IRS-1C Rocket 4.2 05:53:14 10° NNE 05:58:33 87° ESE 06:03:49 10° SSW
Cosmos 864 Rocket 4.5 05:53:52 10° NNW 06:00:03 73° W 06:06:15 10° S
Helios 1A Rocket 3.6 05:59:13 10° N 06:02:55 33° WNW 06:06:36 10° SW
Cosmos 1328 4.1 06:00:19 10° NNW 06:04:10 46° W 06:07:58 10° SSW
FALCON 9 DEB 1.4 06:03:21 10° WSW 06:05:09 62° NW 06:06:58 10° NE
STARLINK-34 3.5 06:01:11 10° WSW 06:05:11 68° NW 06:09:13 10° NE
STARLINK-24 3.5 06:03:28 10° WSW 06:07:28 65° NNW 06:11:28 10° NE
STARLINK-81 3.5 06:04:17 10° WSW 06:08:17 69° NW 06:12:20 10° NE
STARLINK-54 3.6 06:06:07 10° WSW 06:10:07 63° NNW 06:14:07 10° NE
STARLINK-77 3.5 06:07:36 10° WSW 06:11:35 66° NW 06:15:37 10° NE
Cosmos 2263 Rocket 2.2 06:07:09 10° NNW 06:12:46 72° WSW 06:18:24 10° SSE
STARLINK-25 3.6 06:09:18 10° WSW 06:13:16 64° NW 06:17:17 10° NE
SMAP 3.2 06:09:34 10° N 06:14:07 54° WNW 06:18:38 10° SSW
STARLINK-71 3.7 06:11:10 10° WSW 06:15:08 57° NNW 06:19:07 10° NE
STARLINK-79 3.6 06:12:35 10° WSW 06:16:34 60° NNW 06:20:34 10° NE
Cosmos 2058 Rocket 3.5 06:13:20 10° SSW 06:17:31 41° WNW 06:21:42 10° N
STARLINK-78 3.6 06:14:18 10° WSW 06:18:16 58° NNW 06:22:15 10° NE
Lacrosse 5 3.2 06:13:38 10° SSW 06:18:27 45° SE 06:23:18 10° ENE
STARLINK-57 3.7 06:16:04 10° WSW 06:20:01 55° NNW 06:24:00 10° NE
